RH
19 21 22 17 53 73 76 85 84 92 76 67 44 37 27 84 100 100 99 100 100 96 100 100 100 97 86 83 89 82 88 90 93 100 94 82 88 100 100 100 100 100 100
21 20 23 16 39 69 71 95 91 92 86 83 65 37 30 82 100 100 100 100 100 100 100 100 100 100 92 87 95 96 92 95 95 100 100 99 100 100 100 100 100 100 100
21 19 22 19 34 55 68 100 100 100 84 98 92 36 25 50 76 100 100 100 100 100 100 100 100 100 100 99 100 100 99 100 99 100 100 100 100 100 100 100 100 100 100
19 20 21 20 28 24 68 100 100 100 100 100 99 48 22 51 100 100 100 100 100 99 100 100 100 100 100 100 100 100 100 100 100 100 100 100 100 100 100 100 100 100 94
17 21 21 22 20 40 73 100 100 100 100 100 100 62 23 52 92 100 100 100 100 100 100 87 100 100 100 100 100 100 100 100 100 100 100 100 100 100 100 100 100 91 82
16 22 27 24 21 84 80 96 100 100 100 100 87 66 30 52 86 93 100 100 98 100 100 100 100 100 100 100 100 100 100 100 100 100 100 100 100 91 87 90 91 96 84
16 24 25 26 54 40 62 100 100 100 100 90 78 52 38 62 75 90 99 100 100 100 100 100 100 100 100 97 92 90 92 88 90 78 74 76 89 98 100 99 87 81 78
17 23 24 30 29 24 52 100 92 100 100 100 100 67 40 53 100 100 100 97 97 100 100 100 100 100 100 100 100 100 99 100 100 100 100 100 98 91 91 90 88 82 75
19 21 23 29 25 26 50 81 99 99 100 100 100 92 44 30 68 100 100 100 90 94 100 100 100 100 100 100 100 100 100 100 100 100 100 100 100 100 100 96 92 88 88
19 21 22 24 27 26 32 64 99 87 100 100 100 95 65 51 50 100 100 100 100 97 71 84 89 89 88 87 87 92 100 100 100 100 99 89 87 86 82 88 95 95 92
18 20 23 23 25 22 20 64 89 100 100 100 100 100 89 82 72 79 100 100 100 100 100 96 82 69 77 83 83 82 88 100 99 90 80 73 77 84 91 93 86 83 72
21 22 23 22 26 24 20 59 89 100 100 100 100 100 100 100 100 100 100 100 100 100 100 100 100 100 100 100 100 100 100 100 98 100 100 100 100 100 99 98 90 79 71
21 24 23 22 24 26 20 28 95 100 100 100 100 97 99 100 100 100 100 100 100 100 100 100 100 100 100 100 100 100 100 100 100 100 100 100 100 100 100 100 100 100 100
21 20 22 24 22 23 22 19 69 100 100 100 100 100 100 100 100 100 100 100 100 100 100 100 100 100 100 100 100 100 100 100 100 100 100 100 100 100 100 99 92 83 74
23 24 22 24 24 22 23 19 51 100 100 100 100 100 79 100 100 100 100 100 100 100 100 100 100 100 100 100 99 96 99 100 99 98 100 100 100 100 100 94 90 81 64
16 23 24 24 24 20 21 20 26 100 100 100 100 100 100 100 100 74 100 100 100 100 100 83 100 100 78 100 100 93 88 94 100 100 100 100 100 100 100 98 83 65 56
13 20 26 24 25 21 18 22 19 74 100 100 100 100 100 100 72 100 100 100 100 100 100 100 100 100 100 93 77 72 100 100 100 100 100 100 100 100 95 79 66 60 63
12 19 24 27 26 25 21 18 20 28 94 100 100 100 100 100 100 100 99 100 100 100 100 100 100 97 100 100 100 100 99 100 95 98 85 71 80 75 75 71 59 57 64
8 16 21 24 28 28 23 18 20 19 69 100 100 100 100 100 100 100 92 100 100 100 100 100 100 100 100 100 100 100 100 100 100 100 96 54 55 59 55 52 51 56 57
6 11 18 23 24 29 26 22 18 21 21 93 99 100 100 100 100 100 93 100 100 98 99 100 100 99 96 99 100 100 100 100 100 100 100 87 94 90 64 53 53 46 53
6 7 13 19 25 28 28 24 20 20 21 24 81 100 100 100 100 100 100 100 100 100 84 100 100 100 100 100 100 100 100 100 100 100 100 100 100 100 99 87 68 56 48
6 6 8 15 21 27 31 25 22 19 22 23 25 76 100 100 100 100 100 100 100 100 100 100 100 100 100 100 100 100 100 100 100 100 100 100 100 100 100 100 78 100 94
6 6 6 9 17 22 27 30 24 20 19 23 23 26 70 100 100 100 100 100 100 100 100 100 100 100 100 100 100 100 100 100 100 100 100 100 100 100 100 100 99 100 100
6 6 6 6 10 18 24 28 27 24 19 18 22 23 24 64 100 100 100 100 100 100 100 100 100 100 100 100 100 100 100 100 100 100 100 100 100 100 100 100 100 100 100
5 6 6 6 7 11 20 22 27 25 23 20 18 21 24 24 45 90 100 100 100 100 100 100 100 100 99 100 100 100 100 100 100 100 100 100 100 100 100 100 100 100 100
4 5 6 7 6 7 11 20 24 25 25 23 21 19 19 24 25 28 64 100 100 100 100 100 100 100 100 100 100 100 100 100 100 100 100 100 100 100 100 100 100 100 100
Wind_Speed
107 99 92 82 73 72 69 71 68 66 64 63 62 58 57 71 69 68 66 61 62 58 55 60 58 55 53 48 45 41 40 36 34 32 29 27 27 26 25 23 22 21 25
109 100 95 89 77 75 68 69 70 68 64 66 65 63 63 77 71 69 63 61 62 62 63 62 61 59 55 52 50 46 43 42 39 37 36 32 30 29 29 28 25 27 29
114 103 99 92 81 79 74 69 68 66 67 65 69 66 63 71 72 67 64 61 64 59 62 65 64 60 58 55 52 50 47 46 42 41 39 38 34 32 32 30 29 29 31
119 108 105 97 90 81 80 72 61 70 72 71 68 65 63 73 80 73 69 65 62 58 60 53 62 63 61 59 57 54 51 48 46 44 41 41 37 33 32 33 33 34 32
123 113 106 100 91 86 86 86 91 76 75 73 69 65 65 76 89 82 74 65 64 64 59 57 55 58 63 64 60 57 54 51 50 46 43 41 38 37 37 36 35 36 36
126 117 108 107 100 95 90 89 83 81 77 75 73 66 67 77 88 82 77 71 68 65 61 58 57 55 53 53 59 59 59 55 50 50 46 42 41 43 42 39 40 40 38
125 120 115 110 111 102 94 86 90 81 80 77 73 70 68 76 82 89 85 77 70 63 62 61 59 58 57 58 56 55 54 52 49 50 49 49 46 46 46 45 44 44 44
124 124 118 119 112 106 98 102 92 90 79 75 73 71 68 73 79 78 81 82 77 74 69 65 62 60 59 58 56 55 54 51 51 51 50 50 51 51 49 48 47 46 45
124 125 122 120 115 110 104 100 96 90 82 72 70 73 72 68 81 82 77 72 78 78 72 70 69 64 63 60 60 60 58 56 56 55 55 55 56 56 55 56 52 51 50
125 127 126 123 120 113 108 101 96 89 85 79 77 74 71 63 74 88 85 80 75 72 74 71 70 71 70 69 66 66 67 64 62 61 62 62 62 62 60 58 59 59 59
123 126 126 125 122 116 109 105 100 96 88 84 78 64 70 63 60 80 89 88 82 81 76 70 67 66 65 66 66 68 71 74 73 71 70 68 67 66 65 67 67 64 63
121 125 129 128 124 119 111 110 104 100 92 92 82 83 71 62 59 56 70 83 76 82 80 75 73 72 72 71 70 69 71 71 70 71 69 68 67 67 66 66 67 66 63
121 128 131 130 127 123 116 113 110 103 99 91 87 80 74 67 62 61 57 56 57 60 64 59 59 64 67 70 75 78 78 77 76 74 74 76 77 77 76 75 73 68 66
117 124 131 132 129 125 121 113 115 108 105 91 93 86 79 77 73 70 63 64 58 59 60 59 58 58 59 60 62 61 63 65 64 63 65 68 70 72 74 73 73 72 70
118 123 126 132 133 129 124 117 117 112 111 102 97 93 92 87 84 76 72 69 66 64 60 61 61 59 58 58 61 59 58 58 57 58 60 61 60 59 60 62 63 61 62
114 122 127 133 134 130 125 122 119 118 115 110 100 100 97 93 98 90 87 81 83 75 66 53 63 61 58 59 58 60 59 57 60 60 62 59 58 58 58 56 56 56 57
107 117 125 130 134 131 128 126 121 123 121 120 110 104 100 101 99 96 92 90 85 81 75 69 67 63 63 60 59 56 58 58 59 65 67 65 64 64 65 62 59 57 58
103 116 125 130 135 136 132 128 128 126 127 122 121 112 104 108 99 101 98 96 94 88 86 82 74 72 75 69 73 63 63 64 64 67 66 67 66 64 61 59 60 60 57
99 114 122 128 136 140 135 131 132 127 131 130 127 122 113 112 107 104 105 104 96 94 94 85 86 85 80 79 71 69 71 73 70 69 71 70 70 70 71 71 70 69 67
91 106 119 125 131 138 137 133 131 133 129 135 131 129 124 121 116 111 112 108 104 106 99 99 94 93 92 89 79 78 81 79 77 77 77 77 75 77 77 76 77 78 77
85 98 114 123 129 136 140 137 135 135 135 132 136 133 130 128 124 125 117 114 112 108 109 102 97 97 99 96 92 87 80 88 88 85 77 69 70 71 72 72 78 81 81
80 91 105 120 128 136 144 141 138 136 138 137 134 138 138 133 129 128 126 123 119 115 110 110 105 101 102 96 99 100 97 91 87 85 80 79 77 79 80 79 77 79 77
75 85 97 111 127 131 140 145 143 140 139 140 139 137 140 142 137 134 129 127 123 123 122 113 115 112 113 109 107 100 100 98 98 92 91 87 84 70 71 76 74 81 91
72 79 89 103 118 130 136 145 147 145 142 141 143 141 139 141 144 142 141 137 131 126 126 125 123 119 113 116 112 107 104 105 106 103 97 93 88 85 80 82 82 83 86
63 75 83 93 108 122 135 139 147 149 148 145 145 146 144 141 143 145 145 144 141 134 128 129 131 130 126 118 120 119 116 115 113 111 109 105 100 96 94 96 98 94 97
56 67 79 87 97 111 124 137 141 146 149 151 149 148 148 149 146 145 145 147 146 143 138 135 131 132 130 126 125 124 124 119 117 115 110 109 110 111 113 112 112 110 108
Wind_Direction
222 220 219 217 211 208 213 217 218 217 223 222 221 222 216 204 205 207 208 206 211 215 218 222 220 219 224 226 230 229 234 237 238 242 244 250 256 261 264 270 279 291 295
221 218 216 217 210 205 204 213 218 217 216 222 221 219 216 205 203 205 207 208 209 209 218 221 221 219 222 225 228 229 233 237 238 243 245 248 254 259 263 271 280 288 288
218 215 216 215 212 207 203 206 213 220 218 220 223 221 219 214 206 205 208 210 213 217 214 219 220 220 221 226 229 232 235 239 242 244 248 250 253 256 264 271 276 280 284
217 213 214 212 211 209 202 204 218 215 220 217 222 221 219 210 205 204 209 210 213 218 215 215 223 220 221 224 228 232 236 239 241 244 246 251 256 263 267 271 271 275 280
215 211 211 210 210 208 203 198 207 211 217 216 219 220 220 212 207 207 206 210 215 216 220 216 215 220 223 225 227 231 234 238 241 246 249 254 257 261 262 263 267 272 280
212 210 205 207 207 205 203 203 206 207 214 214 215 215 222 216 211 211 211 211 213 215 218 219 219 219 222 229 233 236 235 237 243 245 247 250 254 257 259 263 267 274 278
210 207 204 204 206 204 201 205 205 206 212 213 215 214 217 220 215 216 215 216 214 213 214 217 218 219 224 226 228 230 233 235 237 242 245 247 249 253 257 263 269 274 275
209 205 202 205 207 206 201 204 204 206 207 214 215 215 217 217 214 218 221 220 219 219 220 220 221 223 221 224 227 230 233 238 242 244 247 247 250 255 261 267 271 273 277
207 206 202 205 205 207 202 204 206 204 200 203 213 216 217 218 214 214 219 223 226 225 227 227 226 229 228 228 231 233 233 238 242 244 251 254 256 261 264 268 271 274 277
207 205 203 204 205 206 207 203 206 205 202 204 211 213 215 216 217 217 217 223 224 230 234 233 234 235 236 236 237 240 240 245 250 253 258 261 261 262 264 266 269 271 275
207 205 204 204 205 206 207 204 205 207 203 204 207 208 218 212 217 219 221 221 223 228 230 233 236 237 238 239 241 242 244 248 252 255 257 257 258 261 264 266 269 272 273
205 206 205 204 205 206 206 204 205 207 204 207 205 203 206 208 211 214 221 225 227 231 232 236 236 236 238 240 243 244 246 248 251 253 255 256 258 261 265 268 272 277 278
206 205 206 205 205 206 205 205 205 206 206 207 205 202 201 205 213 212 215 214 220 226 230 231 233 236 238 240 242 244 246 248 251 254 255 257 259 260 260 257 258 258 259
207 208 205 205 205 207 205 206 206 206 205 203 201 201 203 207 210 212 218 223 225 224 231 229 228 232 234 236 238 238 241 243 246 250 253 255 256 258 259 260 262 264 266
206 208 208 206 206 206 205 205 205 205 207 205 205 203 204 206 203 206 212 214 225 230 228 229 233 234 238 240 240 239 241 243 247 251 254 253 255 257 258 260 262 264 266
206 207 208 207 208 207 206 205 206 205 206 205 204 204 205 208 207 211 211 218 219 229 224 226 230 237 238 236 241 242 245 244 253 254 252 252 256 258 260 260 263 267 267
206 207 209 208 208 210 208 206 206 205 207 209 206 206 210 213 211 212 211 214 219 220 220 220 222 225 244 239 244 244 242 250 251 250 249 253 255 257 261 260 262 264 265
207 207 208 209 209 210 210 208 207 206 206 209 208 208 207 215 212 211 211 214 215 215 217 217 219 227 234 228 239 237 244 247 248 249 254 254 253 257 256 258 261 263 261
208 208 210 209 210 210 211 210 208 208 207 208 209 209 209 208 215 214 211 210 214 217 218 217 220 222 229 230 231 237 246 245 247 250 254 253 255 258 260 264 266 264 264
210 209 210 211 211 211 212 211 212 210 210 209 209 211 210 209 213 213 211 211 215 217 218 220 222 224 227 227 229 238 243 242 246 247 252 254 255 258 260 262 263 265 266
213 210 211 212 211 211 214 213 212 213 212 213 211 212 213 213 212 214 215 217 217 217 219 219 223 224 225 226 228 236 236 239 240 246 246 250 252 255 260 263 265 266 267
216 213 211 212 212 212 212 215 214 214 214 214 214 214 215 216 216 216 217 221 220 221 220 223 221 224 226 226 231 235 234 236 239 241 245 250 255 257 257 260 265 263 265
221 216 214 212 213 214 214 214 216 216 216 216 215 216 217 218 218 218 219 220 220 223 224 225 227 228 229 228 230 232 234 236 237 240 244 250 253 249 252 256 261 260 264
222 221 218 215 214 214 214 215 216 217 217 218 218 217 218 219 220 221 220 223 223 223 224 225 227 229 231 230 230 229 236 238 241 241 244 246 248 250 253 251 257 260 258
225 223 222 219 216 215 216 217 218 218 218 218 219 219 220 221 222 222 223 225 226 226 224 224 227 230 232 232 232 233 235 239 239 243 244 248 246 250 252 254 256 258 257
227 225 223 222 220 218 217 218 219 220 220 221 221 221 221 222 223 224 224 226 227 227 228 226 227 228 230 232 232 234 236 239 241 243 244 246 248 251 253 255 257 259 259